Temperature
24 22 22 23 23 24 24 24 24 24 24 24 23 23 22 22 22 21 21 21 21 22 22 22 21 21 21 21 21 20 20 20 20 19 19 19 19 19 19 19 18 18 18 18
23 23 24 24 24 24 24 24 24 24 24 24 23 23 22 22 22 22 22 22 22 22 22 22 21 21 21 21 21 20 20 20 20 20 19 19 19 19 19 19 18 18 18 18
24 24 25 25 25 24 24 24 24 24 24 24 24 23 22 22 22 22 22 22 22 22 22 22 22 22 21 21 21 21 21 20 20 20 19 19 19 19 19 19 18 18 18 18
24 25 25 25 25 25 24 24 24 24 23 21 23 22 22 21 21 22 22 22 22 22 22 22 22 22 22 22 21 21 21 20 20 20 19 19 19 19 19 19 19 19 19 19
24 25 25 25 26 25 24 25 24 23 22 21 22 22 22 21 21 21 22 22 23 23 23 23 23 23 22 22 22 21 21 20 20 20 20 19 19 19 19 19 19 19 19 19
24 25 25 26 26 25 25 23 22 20 20 21 22 21 21 20 21 22 22 23 23 23 23 23 23 23 23 22 22 22 21 21 20 20 20 20 20 19 19 19 19 19 19 19
24 25 25 25 25 25 24 22 21 22 20 20 21 21 21 22 22 22 22 23 23 23 23 23 23 23 23 22 22 22 21 21 21 20 20 20 20 20 19 19 19 19 19 19
23 23 24 25 25 24 23 22 21 22 21 20 21 21 22 23 22 23 23 23 23 23 23 23 23 23 23 23 22 22 22 21 21 21 20 20 20 20 20 20 19 19 19 19
22 23 24 25 25 24 22 21 21 19 20 21 20 20 21 22 22 21 22 22 23 23 23 24 24 23 23 23 23 22 22 22 21 21 20 20 20 20 20 20 19 19 19 19
22 23 24 24 24 23 22 20 18 19 20 21 22 21 21 22 22 21 20 21 22 23 23 23 23 23 23 23 23 22 22 22 21 21 21 20 20 20 20 20 19 19 19 19
21 22 23 23 23 23 22 20 18 17 19 20 21 21 22 21 21 20 20 21 22 23 23 23 23 23 23 23 23 22 22 22 21 21 21 20 20 20 20 20 19 19 19 19
19 19 20 22 22 22 22 21 19 20 19 18 19 21 22 21 20 20 20 21 22 23 23 23 23 23 22 22 22 22 22 22 21 21 21 20 20 20 20 20 20 19 19 19
19 18 20 21 21 21 22 21 19 18 17 17 19 21 21 20 20 21 21 21 22 22 23 23 23 22 23 22 22 22 22 22 22 21 21 20 20 20 20 20 20 19 19 19
18 17 19 21 21 21 21 21 20 19 18 18 19 21 21 20 20 20 21 21 21 22 22 22 22 22 22 22 22 22 22 22 22 21 21 21 20 20 20 20 19 19 19 19
17 17 18 19 20 20 21 21 20 20 19 20 20 20 20 19 19 19 21 21 21 21 22 22 22 22 22 22 22 22 22 22 21 21 21 21 20 20 20 19 19 19 19 18
15 17 18 19 20 20 20 21 20 21 20 20 20 19 19 19 19 19 20 20 20 21 21 22 22 22 22 22 22 22 22 21 21 21 21 20 20 20 20 20 19 19 19 18
14 16 17 18 18 20 20 20 20 19 19 19 20 19 18 18 18 18 19 19 20 21 21 21 22 22 22 22 22 22 22 21 21 21 20 20 20 20 19 19 19 19 18 18
14 14 14 15 18 19 19 19 19 19 18 18 18 18 17 17 18 19 20 20 20 21 21 21 21 22 22 22 22 21 21 21 21 20 20 20 20 19 19 19 19 18 18 18
12 13 13 14 16 18 19 19 19 18 18 17 17 17 17 18 18 18 19 19 20 20 21 21 21 21 21 21 21 21 20 20 20 20 20 20 19 19 19 19 19 18 18 18
12 12 13 14 17 17 18 18 18 18 17 17 16 16 17 17 17 17 19 19 20 20 20 21 21 21 21 21 21 20 20 20 20 20 19 19 19 19 19 18 18 18 18 18
14 13 13 14 16 16 17 17 18 18 18 16 16 16 16 16 17 18 18 19 19 20 20 20 20 20 20 20 20 20 19 19 19 19 19 19 19 19 18 18 18 18 17 17
13 13 13 13 15 16 16 16 16 16 16 16 16 16 17 17 18 18 18 18 19 19 19 19 19 19 19 19 19 19 19 19 19 19 19 18 18 18 17 17 17 17 17 17
12 12 12 13 14 14 15 15 16 16 16 16 16 17 17 17 17 17 18 18 18 18 19 19 19 19 19 18 18 18 19 18 18 18 18 18 17 17 17 17 16 16 16 16
12 11 11 12 13 14 15 15 16 16 16 16 16 16 17 17 17 17 17 17 18 18 18 18 18 18 18 18 18 18 18 18 17 17 17 17 16 16 16 16 16 16 16 15
12 11 11 12 13 14 15 15 15 16 16 16 16 16 16 17 17 17 17 17 17 17 17 17 17 17 17 17 17 17 17 17 17 17 16 16 16 16 16 16 15 15 15 15
10 11 11 12 13 12 14 15 15 15 16 16 16 16 16 16 16 16 16 17 17 17 17 17 17 16 16 16 16 17 16 16 16 16 16 15 15 15 15 15 15 15 14 14
Wind_Speed
3 4 4 7 7 6 5 3 4 4 2 4 5 5 6 9 9 9 9 10 10 10 8 7 7 7 6 6 6 6 6 5 5 3 3 2 1 1 1 2 3 4 4 5
4 4 8 5 4 4 4 3 3 3 1 3 3 5 4 9 12 12 13 12 12 9 7 7 7 7 7 8 7 6 6 6 5 4 3 2 2 1 1 1 1 3 4 5
7 6 3 4 3 3 4 6 5 3 2 2 1 4 3 4 6 7 9 10 10 12 12 10 9 9 8 8 9 9 7 6 5 5 3 3 2 2 1 0 1 1 2 3
5 4 3 3 4 6 5 6 6 3 3 2 1 3 6 4 5 8 10 10 12 12 11 11 10 10 10 10 9 8 7 6 6 6 5 5 4 3 2 2 1 1 1 2
5 4 4 5 6 7 6 3 4 3 3 1 1 1 7 1 6 10 11 12 12 12 12 12 12 12 11 10 9 8 7 6 6 6 7 6 4 3 2 1 1 0 0 1
5 3 4 5 2 5 5 7 7 6 5 1 4 3 7 4 8 8 10 11 11 10 11 11 10 9 9 8 8 8 8 7 6 6 6 6 6 5 3 2 2 1 1 0
3 3 2 3 3 3 6 6 4 4 3 5 2 3 9 7 6 8 10 11 10 9 10 10 11 11 11 10 10 9 9 8 7 7 7 7 6 6 5 4 3 3 1 1
2 5 4 3 6 6 5 9 8 6 6 5 2 6 8 6 5 5 6 6 7 9 9 10 12 12 12 12 11 10 10 9 8 7 7 6 6 5 4 4 4 4 3 3
6 6 4 2 3 8 6 4 6 7 3 1 5 7 8 4 3 2 1 3 6 9 10 10 10 11 11 11 12 11 11 9 8 8 6 5 6 5 5 4 4 3 3 3
7 4 4 3 4 4 6 8 6 6 6 3 5 5 5 6 5 3 2 3 6 6 7 7 8 9 9 10 9 9 10 9 8 8 7 7 6 6 5 4 4 4 4 3
5 4 4 2 2 3 4 5 5 5 5 6 4 7 5 7 6 5 5 5 5 6 7 7 7 7 8 8 9 9 8 8 7 8 7 6 5 5 5 5 5 4 4 4
3 5 2 5 4 2 4 6 7 6 4 5 5 7 5 4 4 4 4 4 4 5 5 6 6 6 7 8 8 9 9 9 8 7 6 6 5 5 5 5 4 4 4 4
3 5 2 5 5 3 2 2 4 5 5 6 5 7 3 2 2 2 3 3 3 4 4 4 5 6 7 8 8 8 9 9 8 7 7 6 6 6 6 5 4 3 3 3
4 4 6 9 7 3 2 1 3 5 4 5 8 7 5 4 3 3 2 2 3 4 4 4 4 5 6 7 7 8 8 8 8 7 8 7 7 6 6 5 4 4 3 3
5 3 3 4 4 3 3 4 5 5 7 8 8 7 7 5 5 3 1 2 4 4 4 4 5 5 5 5 6 6 6 6 7 7 7 7 6 5 5 4 4 3 3 4
4 3 1 1 2 2 2 4 5 5 4 5 4 5 4 2 1 1 1 3 3 4 4 4 4 4 4 5 5 5 6 7 7 7 7 6 6 5 5 5 5 4 4 3
1 3 2 2 4 1 3 4 5 3 2 4 6 5 0 1 1 1 1 3 2 2 3 4 4 4 4 5 5 6 7 6 7 7 6 6 6 6 6 5 5 5 4 4
4 3 3 1 2 5 7 2 3 4 0 1 1 2 3 3 2 0 1 2 1 0 1 2 2 3 3 4 4 5 5 6 6 6 6 6 6 6 5 5 5 5 4 4
5 7 4 3 3 4 5 1 2 2 1 2 2 1 1 2 4 3 2 1 1 1 1 1 2 3 2 2 3 4 4 5 5 6 6 5 6 5 5 5 5 4 4 4
4 5 5 4 4 7 7 3 2 3 2 2 1 1 1 3 2 3 3 2 1 1 1 0 1 2 2 2 4 5 4 4 5 5 5 5 5 6 6 6 5 4 4 4
3 3 3 4 4 6 5 5 1 4 6 2 2 2 2 3 5 4 2 1 1 1 1 2 2 2 1 2 4 4 4 4 5 4 4 5 5 6 5 5 4 3 3 3
5 4 4 4 4 6 4 2 3 4 2 2 3 3 3 3 2 1 1 0 1 2 2 2 2 1 0 2 4 3 3 4 3 3 3 4 4 4 4 4 3 3 4 4
4 5 5 6 6 4 2 1 2 2 2 3 3 4 3 3 2 1 1 0 0 0 1 1 2 1 1 1 3 3 3 1 2 3 3 3 3 4 4 5 5 4 3 3
2 1 2 1 3 3 3 2 1 1 2 4 3 3 3 3 3 2 1 1 0 1 1 1 1 1 1 1 2 3 2 2 2 2 3 3 3 3 3 3 3 4 4 4
3 1 1 2 4 3 3 3 3 3 3 3 2 1 1 3 3 3 2 1 1 1 1 0 0 1 2 1 1 1 2 3 3 2 2 3 3 3 2 2 1 3 3 5
4 5 5 6 6 4 5 5 3 3 3 3 2 2 1 1 2 2 2 2 2 2 1 0 0 1 2 1 2 1 2 3 3 2 2 3 3 2 3 2 1 2 1 2
Wind_Direction
100 97 195 205 194 188 177 184 241 251 207 169 219 241 214 185 190 194 198 201 207 214 208 192 186 175 165 167 168 173 170 166 150 141 148 146 186 199 207 223 218 211 197 184
66 234 224 188 194 165 169 202 248 289 180 165 226 257 224 193 203 201 200 205 207 208 198 191 187 179 178 179 178 179 180 173 170 166 159 153 154 177 211 235 232 211 193 188
188 227 179 154 172 172 204 200 213 216 21 35 86 316 256 223 213 210 208 208 207 204 200 196 192 191 186 187 188 191 188 180 176 162 133 113 87 66 70 61 268 242 203 196
222 240 173 184 204 172 239 218 191 155 99 302 103 270 279 231 228 220 218 210 210 210 199 194 194 193 194 196 189 187 183 180 176 164 159 157 165 182 203 200 218 250 187 184
230 199 179 205 215 177 208 145 138 129 132 29 358 193 286 236 239 235 227 217 212 207 198 195 196 197 198 191 184 184 176 180 178 175 175 170 175 184 173 152 174 215 173 179
233 231 198 203 198 159 132 74 61 53 71 298 242 183 278 240 230 239 226 218 210 205 199 196 192 189 191 183 179 179 176 185 182 179 179 179 180 177 169 181 199 224 216 188
303 294 254 164 105 67 108 98 46 3 6 253 245 203 251 257 246 230 223 217 206 197 194 190 185 188 190 186 185 181 179 189 188 185 189 190 186 179 184 192 197 198 198 209
196 278 247 194 174 176 172 144 160 193 214 264 264 232 252 267 279 246 224 210 193 189 192 192 191 190 191 189 186 181 183 192 188 190 196 193 187 185 192 194 192 197 205 216
180 250 283 239 184 146 144 167 162 138 148 223 277 285 301 300 333 336 236 184 191 192 191 192 188 185 185 186 186 184 184 189 191 192 191 192 192 192 196 196 193 200 206 211
163 224 290 292 77 54 136 142 107 126 151 230 285 279 264 286 290 293 253 214 209 193 182 179 180 181 182 184 182 180 181 190 192 190 192 202 201 198 194 191 200 205 209 203
139 169 303 21 139 179 101 102 110 124 153 164 233 266 234 238 243 230 227 217 204 188 182 180 178 177 170 168 172 177 179 184 191 193 193 199 198 194 190 199 208 207 209 200
135 134 235 265 270 215 156 159 147 157 203 178 185 259 276 238 244 219 218 208 192 181 177 172 162 158 165 174 179 181 185 189 192 189 184 192 190 187 190 200 208 205 208 205
128 119 110 333 336 11 85 131 144 131 130 159 180 256 309 338 309 239 202 189 172 156 149 148 151 166 175 179 181 183 187 190 189 183 183 189 190 189 195 200 200 196 196 195
123 120 170 198 215 216 227 199 160 135 157 197 217 237 284 300 298 295 254 179 155 154 157 157 166 179 184 179 183 186 190 187 183 181 183 189 195 196 197 195 193 195 193 193
95 135 198 227 233 196 213 227 201 196 193 193 225 221 242 244 245 253 249 144 136 149 162 173 181 190 189 185 188 187 190 186 180 177 184 192 194 188 181 179 185 192 193 204
64 127 138 287 282 221 242 258 224 223 209 214 220 245 249 238 152 78 91 131 152 175 185 186 182 185 194 194 191 184 186 188 179 184 192 188 183 183 184 187 183 184 191 195
57 113 110 257 298 36 258 242 204 197 220 194 211 230 152 100 118 188 143 127 154 184 185 189 195 196 201 198 188 186 188 182 179 184 187 184 182 187 193 195 186 189 193 188
150 119 132 165 80 219 241 254 154 142 103 287 212 198 167 174 182 114 97 128 150 177 178 204 201 203 202 185 178 173 166 171 178 183 187 188 186 191 188 185 191 196 192 192
170 146 136 139 176 256 285 263 149 151 293 307 216 198 146 109 70 28 9 32 199 213 206 192 199 199 190 169 163 145 153 166 174 186 188 188 185 187 185 188 198 201 192 194
79 108 128 141 165 218 240 274 300 129 243 294 197 186 125 101 112 262 306 331 331 2 25 91 126 130 126 156 143 139 153 168 186 198 199 186 182 187 189 194 197 199 187 188
71 76 134 166 201 252 266 299 8 180 231 271 243 240 188 185 211 231 267 315 328 10 36 61 82 108 163 145 134 153 169 193 201 192 192 188 188 193 190 183 183 179 175 167
173 156 173 156 184 243 304 52 165 221 265 246 249 242 225 224 229 218 196 318 10 25 37 64 86 75 50 127 137 157 205 220 192 170 179 187 194 200 188 173 173 170 171 172
198 192 184 188 207 249 290 220 230 208 253 263 251 260 237 216 219 221 242 256 302 333 18 50 107 97 36 144 156 176 233 224 161 156 170 180 192 200 184 174 176 176 174 180
274 151 149 235 261 269 287 293 307 294 278 287 276 266 216 193 195 201 248 251 261 319 336 355 75 85 343 279 196 199 206 166 148 163 179 174 176 183 173 170 177 182 189 190
239 174 146 251 269 316 303 288 295 313 317 319 328 328 238 176 177 187 206 235 237 259 296 319 231 240 260 271 254 228 176 153 157 175 186 177 175 173 158 147 169 195 206 200
220 200 198 231 231 218 260 274 278 287 293 292 303 330 335 200 205 194 210 225 233 238 216 218 304 289 291 282 268 248 183 165 163 176 186 184 180 174 170 157 95 43 164 176
Height
1481 1488 1493 1491 1488 1490 1493 1498 1501 1496 1490 1493 1496 1495 1492 1493 1495 1497 1499 1500 1501 1503 1506 1508 1511 1513 1515 1517 1518 1520 1522 1523 1525 1526 1527 1528 1529 1531 1532 1533 1534 1535 1536 1537
1487 1490 1482 1482 1484 1488 1492 1498 1499 1494 1489 1492 1496 1495 1491 1491 1491 1492 1494 1496 1498 1501 1504 1506 1509 1511 1513 1515 1517 1519 1521 1523 1524 1526 1527 1529 1530 1531 1532 1533 1534 1535 1536 1537
1486 1482 1478 1482 1486 1490 1493 1496 1496 1497 1493 1492 1496 1499 1493 1490 1490 1492 1493 1494 1496 1498 1500 1503 1506 1508 1511 1514 1516 1518 1520 1522 1524 1526 1527 1528 1530 1531 1532 1533 1534 1535 1536 1537
1481 1477 1478 1481 1484 1486 1495 1486 1488 1493 1503 1509 1504 1517 1497 1491 1490 1489 1489 1490 1491 1494 1497 1500 1503 1506 1508 1511 1514 1517 1519 1522 1523 1525 1526 1527 1528 1530 1531 1532 1534 1535 1535 1536
1480 1475 1477 1481 1480 1480 1485 1482 1487 1494 1503 1511 1508 1515 1504 1492 1492 1487 1484 1485 1487 1490 1493 1495 1499 1502 1506 1509 1512 1515 1518 1520 1522 1524 1525 1527 1528 1529 1531 1532 1533 1534 1535 1536
1474 1471 1472 1473 1473 1475 1479 1487 1494 1503 1511 1522 1512 1516 1510 1496 1487 1481 1479 1480 1483 1486 1489 1492 1496 1500 1503 1507 1510 1513 1516 1518 1520 1522 1524 1525 1527 1528 1530 1531 1532 1533 1534 1535
1479 1474 1470 1470 1476 1478 1482 1500 1520 1523 1532 1527 1510 1512 1505 1482 1477 1475 1474 1475 1478 1482 1485 1488 1492 1495 1499 1503 1507 1510 1513 1516 1518 1520 1522 1524 1525 1527 1528 1530 1531 1532 1533 1534
1490 1490 1473 1469 1474 1481 1485 1494 1519 1530 1533 1525 1512 1512 1492 1475 1472 1471 1471 1472 1475 1478 1481 1484 1488 1491 1495 1499 1503 1507 1510 1513 1516 1518 1520 1522 1524 1526 1527 1528 1530 1530 1531 1532
1490 1488 1470 1467 1467 1473 1486 1494 1493 1513 1520 1523 1516 1504 1485 1472 1471 1470 1471 1471 1472 1475 1478 1481 1485 1488 1492 1496 1500 1503 1506 1510 1513 1516 1518 1520 1522 1524 1525 1527 1528 1529 1529 1530
1478 1485 1473 1468 1467 1472 1476 1486 1501 1513 1526 1528 1516 1508 1498 1479 1474 1472 1471 1470 1470 1472 1476 1479 1482 1486 1489 1493 1497 1501 1503 1507 1510 1513 1516 1518 1520 1522 1524 1525 1526 1527 1527 1528
1473 1484 1480 1474 1476 1479 1482 1489 1498 1509 1511 1523 1524 1509 1479 1476 1472 1471 1469 1468 1469 1471 1474 1477 1480 1484 1487 1491 1495 1498 1502 1505 1508 1510 1513 1516 1518 1519 1521 1522 1523 1524 1525 1526
1475 1484 1490 1481 1472 1470 1474 1481 1492 1503 1510 1514 1516 1504 1470 1470 1468 1468 1467 1468 1469 1470 1473 1476 1479 1483 1486 1489 1493 1496 1499 1502 1505 1508 1510 1513 1515 1517 1518 1520 1521 1522 1522 1523
1474 1486 1497 1493 1486 1478 1477 1479 1484 1492 1503 1513 1513 1497 1469 1468 1467 1466 1466 1467 1468 1470 1473 1476 1479 1481 1484 1487 1490 1494 1496 1499 1503 1505 1508 1510 1512 1513 1515 1517 1518 1519 1520 1520
1470 1484 1491 1495 1490 1482 1481 1479 1482 1488 1500 1505 1498 1487 1474 1471 1469 1467 1466 1467 1468 1470 1472 1475 1477 1480 1482 1485 1488 1491 1494 1497 1500 1502 1504 1506 1509 1511 1512 1514 1515 1517 1517 1518
1470 1483 1482 1480 1476 1476 1477 1477 1478 1481 1484 1490 1483 1481 1474 1470 1469 1467 1466 1467 1468 1470 1472 1474 1476 1479 1481 1483 1486 1489 1491 1494 1497 1499 1501 1503 1506 1508 1509 1511 1512 1514 1514 1515
1474 1481 1481 1480 1476 1476 1477 1474 1474 1474 1475 1477 1476 1476 1469 1467 1467 1466 1466 1467 1468 1469 1471 1473 1475 1477 1479 1481 1484 1486 1489 1492 1494 1496 1499 1501 1503 1505 1506 1507 1508 1510 1511 1512
1480 1482 1487 1489 1481 1477 1484 1474 1473 1474 1472 1473 1476 1473 1468 1468 1467 1467 1467 1467 1468 1469 1471 1472 1474 1476 1478 1479 1481 1483 1486 1489 1491 1494 1496 1498 1499 1501 1503 1504 1505 1505 1507 1509
1480 1485 1492 1493 1486 1494 1479 1467 1467 1471 1471 1470 1469 1468 1467 1467 1467 1467 1468 1468 1468 1469 1471 1472 1473 1475 1476 1478 1480 1482 1484 1486 1489 1491 1493 1494 1496 1498 1500 1501 1502 1503 1504 1505
1474 1481 1492 1497 1495 1488 1474 1468 1468 1471 1473 1469 1469 1467 1466 1466 1466 1468 1468 1469 1469 1469 1470 1471 1472 1474 1475 1476 1478 1479 1481 1483 1486 1487 1489 1491 1493 1495 1496 1497 1499 1500 1500 1501
1475 1478 1488 1494 1492 1493 1475 1465 1465 1469 1475 1468 1467 1467 1466 1466 1472 1470 1468 1468 1468 1469 1470 1470 1471 1472 1474 1475 1476 1477 1479 1480 1482 1484 1487 1488 1490 1491 1492 1493 1495 1496 1497 1497
1480 1484 1488 1491 1490 1482 1468 1464 1464 1477 1473 1467 1466 1465 1465 1466 1467 1467 1466 1467 1467 1468 1469 1469 1470 1471 1472 1473 1474 1475 1476 1477 1479 1481 1483 1485 1486 1487 1488 1490 1491 1492 1493 1493
1480 1484 1487 1489 1489 1483 1466 1465 1469 1469 1465 1464 1464 1464 1464 1463 1464 1464 1465 1466 1466 1466 1467 1468 1468 1469 1470 1471 1472 1473 1474 1475 1476 1477 1479 1480 1482 1484 1484 1485 1487 1488 1489 1489
1477 1476 1477 1478 1477 1469 1466 1465 1465 1464 1464 1462 1462 1461 1461 1461 1462 1463 1464 1464 1465 1465 1466 1466 1467 1468 1469 1470 1470 1470 1472 1473 1473 1474 1475 1476 1478 1479 1480 1481 1483 1484 1484 1485
1473 1471 1473 1473 1469 1466 1465 1464 1464 1464 1463 1462 1460 1459 1459 1459 1460 1461 1462 1462 1463 1464 1464 1465 1465 1465 1466 1467 1468 1468 1469 1470 1470 1471 1472 1473 1475 1476 1477 1477 1479 1479 1480 1480
1471 1471 1472 1471 1467 1465 1464 1463 1462 1462 1461 1460 1459 1459 1458 1457 1458 1459 1460 1461 1462 1462 1463 1463 1464 1464 1464 1465 1465 1466 1467 1468 1468 1468 1469 1470 1471 1472 1473 1474 1475 1476 1477 1477
1467 1468 1470 1468 1464 1464 1463 1461 1461 1460 1459 1458 1458 1457 1457 1457 1457 1457 1458 1459 1460 1460 1461 1461 1462 1462 1462 1463 1463 1464 1464 1465 1465 1466 1466 1467 1468 1469 1470 1470 1471 1472 1473 1474